Time,TemperatureF,DewpointF,PressureIn,WindDirection,WindDirectionDegrees,WindSpeedMPH,WindSpeedGustMPH,Humidity,HourlyPrecipIn,Conditions,Clouds,dailyrainin,SolarRadiationWatts/m^2,SoftwareType,DateUTC
2013-03-19 00:21:00,33.0,19.0,-100.00,ENE,70,6.0,10.0,57,0.00,,,0.00,1.000000,,2013-03-19 07:21:00,
2013-03-19 00:32:00,33.0,19.0,-100.00,ENE,70,6.0,10.0,57,0.00,,,0.00,1.000000,,2013-03-19 07:32:00,
2013-03-19 00:42:00,33.0,19.0,-100.00,ENE,70,6.0,10.0,57,0.00,,,0.00,1.000000,,2013-03-19 07:42:00,
2013-03-19 00:52:00,33.0,19.0,-100.00,ENE,70,6.0,10.0,57,0.00,,,0.00,1.000000,,2013-03-19 07:52:00,
2013-03-19 01:22:00,32.0,20.0,-100.00,ENE,77,5.0,7.0,61,0.00,,,0.00,1.000000,,2013-03-19 08:22:00,
2013-03-19 01:32:00,32.0,20.0,-100.00,ENE,77,5.0,7.0,61,0.00,,,0.00,1.000000,,2013-03-19 08:32:00,
2013-03-19 01:42:00,32.0,20.0,-100.00,ENE,77,5.0,7.0,61,0.00,,,0.00,1.000000,,2013-03-19 08:42:00,
2013-03-19 01:52:00,32.0,20.0,-100.00,ENE,77,5.0,7.0,61,0.00,,,0.00,1.000000,,2013-03-19 08:52:00,
2013-03-19 02:22:00,32.0,18.0,-100.00,ENE,70,5.0,8.0,56,0.00,,,0.00,1.000000,,2013-03-19 09:22:00,
2013-03-19 02:32:00,32.0,18.0,-100.00,ENE,70,5.0,8.0,56,0.00,,,0.00,1.000000,,2013-03-19 09:32:00,
2013-03-19 02:42:00,32.0,18.0,-100.00,ENE,70,5.0,8.0,56,0.00,,,0.00,1.000000,,2013-03-19 09:42:00,
2013-03-19 02:52:00,32.0,18.0,-100.00,ENE,70,5.0,8.0,56,0.00,,,0.00,1.000000,,2013-03-19 09:52:00,
2013-03-19 03:23:00,34.0,15.0,-100.00,NE,56,6.0,9.0,46,0.00,,,0.00,1.000000,,2013-03-19 10:23:00,
2013-03-19 03:32:00,34.0,15.0,-100.00,NE,56,6.0,9.0,46,0.00,,,0.00,1.000000,,2013-03-19 10:32:00,
2013-03-19 03:42:00,34.0,15.0,-100.00,NE,56,6.0,9.0,46,0.00,,,0.00,1.000000,,2013-03-19 10:42:00,
2013-03-19 03:52:00,34.0,15.0,-100.00,NE,56,6.0,9.0,46,0.00,,,0.00,1.000000,,2013-03-19 10:52:00,
2013-03-19 04:22:00,31.0,19.0,-100.00,East,80,5.0,8.0,61,0.00,,,0.00,1.000000,,2013-03-19 11:22:00,
2013-03-19 04:32:00,31.0,19.0,-100.00,East,80,5.0,8.0,61,0.00,,,0.00,1.000000,,2013-03-19 11:32:00,
2013-03-19 04:42:00,31.0,19.0,-100.00,East,80,5.0,8.0,61,0.00,,,0.00,1.000000,,2013-03-19 11:42:00,
2013-03-19 04:52:00,31.0,19.0,-100.00,East,80,5.0,8.0,61,0.00,,,0.00,1.000000,,2013-03-19 11:52:00,
2013-03-19 05:22:00,32.0,19.0,-100.00,East,81,3.0,6.0,57,0.00,,,0.00,1.000000,,2013-03-19 12:22:00,
2013-03-19 05:32:00,32.0,19.0,-100.00,East,81,3.0,6.0,57,0.00,,,0.00,1.000000,,2013-03-19 12:32:00,
2013-03-19 05:42:00,32.0,19.0,-100.00,East,81,3.0,6.0,57,0.00,,,0.00,1.000000,,2013-03-19 12:42:00,
2013-03-19 05:51:00,32.0,19.0,-100.00,East,81,3.0,6.0,57,0.00,,,0.00,1.000000,,2013-03-19 12:51:00,
2013-03-19 06:22:00,31.0,20.0,-100.00,East,81,4.0,6.0,62,0.00,,,0.00,1.000000,,2013-03-19 13:22:00,
2013-03-19 06:32:00,31.0,20.0,-100.00,East,81,4.0,6.0,62,0.00,,,0.00,1.000000,,2013-03-19 13:32:00,
2013-03-19 06:42:00,31.0,20.0,-100.00,East,81,4.0,6.0,62,0.00,,,0.00,1.000000,,2013-03-19 13:42:00,
2013-03-19 06:52:00,31.0,20.0,-100.00,East,81,4.0,6.0,62,0.00,,,0.00,1.000000,,2013-03-19 13:52:00,
2013-03-19 07:22:00,30.0,20.0,-100.00,ENE,68,4.0,7.0,65,0.00,,,0.00,1.000000,,2013-03-19 14:22:00,
2013-03-19 07:32:00,30.0,20.0,-100.00,ENE,68,4.0,7.0,65,0.00,,,0.00,1.000000,,2013-03-19 14:32:00,
2013-03-19 07:42:00,30.0,20.0,-100.00,ENE,68,4.0,7.0,65,0.00,,,0.00,1.000000,,2013-03-19 14:42:00,
2013-03-19 07:52:00,30.0,20.0,-100.00,ENE,68,4.0,7.0,65,0.00,,,0.00,1.000000,,2013-03-19 14:52:00,
2013-03-19 08:22:00,30.0,21.0,-100.00,ENE,72,3.0,5.0,69,0.00,,,0.00,11.000000,,2013-03-19 15:22:00,
2013-03-19 08:33:00,30.0,21.0,-100.00,ENE,72,3.0,5.0,69,0.00,,,0.00,11.000000,,2013-03-19 15:33:00,
2013-03-19 08:43:00,30.0,21.0,-100.00,ENE,72,3.0,5.0,69,0.00,,,0.00,11.000000,,2013-03-19 15:43:00,
2013-03-19 08:52:00,30.0,21.0,-100.00,ENE,72,3.0,5.0,69,0.00,,,0.00,11.000000,,2013-03-19 15:52:00,
2013-03-19 09:23:00,34.0,22.0,-100.00,ENE,68,4.0,6.0,61,0.00,,,0.00,82.000000,,2013-03-19 16:23:00,
2013-03-19 09:33:00,34.0,22.0,-100.00,ENE,68,4.0,6.0,61,0.00,,,0.00,82.000000,,2013-03-19 16:33:00,
2013-03-19 09:43:00,34.0,22.0,-100.00,ENE,68,4.0,6.0,61,0.00,,,0.00,82.000000,,2013-03-19 16:43:00,
2013-03-19 09:53:00,34.0,22.0,-100.00,ENE,68,4.0,6.0,61,0.00,,,0.00,82.000000,,2013-03-19 16:53:00,
2013-03-19 10:23:00,42.0,23.0,-100.00,ENE,74,3.0,5.0,47,0.00,,,0.00,271.000000,,2013-03-19 17:23:00,
2013-03-19 10:34:00,42.0,23.0,-100.00,ENE,74,3.0,5.0,47,0.00,,,0.00,271.000000,,2013-03-19 17:34:00,
2013-03-19 10:43:00,42.0,23.0,-100.00,ENE,74,3.0,5.0,47,0.00,,,0.00,271.000000,,2013-03-19 17:43:00,
2013-03-19 10:52:00,42.0,23.0,-100.00,ENE,74,3.0,5.0,47,0.00,,,0.00,271.000000,,2013-03-19 17:52:00,
2013-03-19 11:23:00,48.0,27.0,-100.00,SW,216,3.0,8.0,44,0.00,,,0.00,403.000000,,2013-03-19 18:23:00,
2013-03-19 11:33:00,48.0,27.0,-100.00,SW,216,3.0,8.0,44,0.00,,,0.00,403.000000,,2013-03-19 18:33:00,
2013-03-19 11:42:00,48.0,27.0,-100.00,SW,216,3.0,8.0,44,0.00,,,0.00,403.000000,,2013-03-19 18:42:00,
2013-03-19 11:52:00,48.0,27.0,-100.00,SW,216,3.0,8.0,44,0.00,,,0.00,403.000000,,2013-03-19 18:52:00,
2013-03-19 12:22:00,49.0,29.0,-100.00,SW,236,5.0,11.0,46,0.00,,,0.00,616.000000,,2013-03-19 19:22:00,
2013-03-19 12:32:00,49.0,29.0,-100.00,SW,236,5.0,11.0,46,0.00,,,0.00,616.000000,,2013-03-19 19:32:00,
2013-03-19 12:42:00,49.0,29.0,-100.00,SW,236,5.0,11.0,46,0.00,,,0.00,616.000000,,2013-03-19 19:42:00,
2013-03-19 12:52:00,49.0,29.0,-100.00,SW,236,5.0,11.0,46,0.00,,,0.00,616.000000,,2013-03-19 19:52:00,
2013-03-19 13:22:00,54.0,32.0,-100.00,South,182,8.0,15.0,43,0.00,,,0.00,507.000000,,2013-03-19 20:22:00,
2013-03-19 13:32:00,54.0,32.0,-100.00,South,182,8.0,15.0,43,0.00,,,0.00,507.000000,,2013-03-19 20:32:00,
2013-03-19 13:42:00,54.0,32.0,-100.00,South,182,8.0,15.0,43,0.00,,,0.00,507.000000,,2013-03-19 20:42:00,
2013-03-19 13:52:00,54.0,32.0,-100.00,South,182,8.0,15.0,43,0.00,,,0.00,507.000000,,2013-03-19 20:52:00,
2013-03-19 14:22:00,51.0,31.0,-100.00,South,180,6.0,16.0,46,0.00,,,0.00,290.000000,,2013-03-19 21:22:00,
2013-03-19 14:33:00,51.0,31.0,-100.00,South,180,6.0,16.0,46,0.00,,,0.00,290.000000,,2013-03-19 21:33:00,
2013-03-19 14:42:00,51.0,31.0,-100.00,South,180,6.0,16.0,46,0.00,,,0.00,290.000000,,2013-03-19 21:42:00,
2013-03-19 14:52:00,51.0,31.0,-100.00,South,180,6.0,16.0,46,0.00,,,0.00,290.000000,,2013-03-19 21:52:00,
2013-03-19 15:23:00,52.0,34.0,-100.00,South,169,6.0,12.0,50,0.00,,,0.00,156.000000,,2013-03-19 22:23:00,
2013-03-19 15:33:00,52.0,34.0,-100.00,South,169,6.0,12.0,50,0.00,,,0.00,156.000000,,2013-03-19 22:33:00,
2013-03-19 15:43:00,52.0,34.0,-100.00,South,169,6.0,12.0,50,0.00,,,0.00,156.000000,,2013-03-19 22:43:00,
2013-03-19 15:52:00,52.0,34.0,-100.00,South,169,6.0,12.0,50,0.00,,,0.00,156.000000,,2013-03-19 22:52:00,
2013-03-19 16:22:00,45.0,39.0,-100.00,SSW,204,6.0,18.0,80,0.00,,,0.00,107.000000,,2013-03-19 23:22:00,
2013-03-19 16:32:00,45.0,39.0,-100.00,SSW,204,6.0,18.0,80,0.00,,,0.00,107.000000,,2013-03-19 23:32:00,
2013-03-19 16:42:00,45.0,39.0,-100.00,SSW,204,6.0,18.0,80,0.00,,,0.00,107.000000,,2013-03-19 23:42:00,
2013-03-19 16:51:00,45.0,39.0,-100.00,SSW,204,6.0,18.0,80,0.00,,,0.00,107.000000,,2013-03-19 23:51:00,
2013-03-19 17:22:00,44.0,42.0,-100.00,SSW,200,2.0,9.0,94,0.06,,,0.06,40.000000,,2013-03-20 00:22:00,
2013-03-19 17:32:00,44.0,42.0,-100.00,SSW,200,2.0,9.0,94,0.06,,,0.06,40.000000,,2013-03-20 00:32:00,
2013-03-19 17:42:00,44.0,42.0,-100.00,SSW,200,2.0,9.0,94,0.06,,,0.06,40.000000,,2013-03-20 00:42:00,
2013-03-19 17:52:00,44.0,42.0,-100.00,SSW,200,2.0,9.0,94,0.06,,,0.06,40.000000,,2013-03-20 00:52:00,
2013-03-19 18:22:00,44.0,42.0,-100.00,South,171,6.0,11.0,92,0.03,,,0.09,53.000000,,2013-03-20 01:22:00,
2013-03-19 18:32:00,44.0,42.0,-100.00,South,171,6.0,11.0,92,0.03,,,0.09,53.000000,,2013-03-20 01:32:00,
2013-03-19 18:42:00,44.0,42.0,-100.00,South,171,6.0,11.0,92,0.03,,,0.09,53.000000,,2013-03-20 01:42:00,
2013-03-19 18:52:00,44.0,42.0,-100.00,South,171,6.0,11.0,92,0.03,,,0.09,53.000000,,2013-03-20 01:52:00,
2013-03-19 19:22:00,43.0,39.0,-100.00,South,186,7.0,18.0,87,0.00,,,0.09,23.000000,,2013-03-20 02:22:00,
2013-03-19 19:32:00,43.0,39.0,-100.00,South,186,7.0,18.0,87,0.00,,,0.09,23.000000,,2013-03-20 02:32:00,
2013-03-19 19:42:00,43.0,39.0,-100.00,South,186,7.0,18.0,87,0.00,,,0.09,23.000000,,2013-03-20 02:42:00,
2013-03-19 19:52:00,43.0,39.0,-100.00,South,186,7.0,18.0,87,0.00,,,0.09,23.000000,,2013-03-20 02:52:00,
2013-03-19 20:22:00,42.0,37.0,-100.00,South,171,7.0,16.0,81,0.00,,,0.09,3.000000,,2013-03-20 03:22:00,
2013-03-19 20:33:00,42.0,37.0,-100.00,South,171,7.0,16.0,81,0.00,,,0.09,3.000000,,2013-03-20 03:33:00,
2013-03-19 20:42:00,42.0,37.0,-100.00,South,171,7.0,16.0,81,0.00,,,0.09,3.000000,,2013-03-20 03:42:00,
2013-03-19 20:52:00,42.0,37.0,-100.00,South,171,7.0,16.0,81,0.00,,,0.09,3.000000,,2013-03-20 03:52:00,
2013-03-19 21:22:00,42.0,38.0,-100.00,South,180,8.0,19.0,85,0.01,,,0.10,1.000000,,2013-03-20 04:22:00,
2013-03-19 21:32:00,42.0,38.0,-100.00,South,180,8.0,19.0,85,0.01,,,0.10,1.000000,,2013-03-20 04:32:00,
2013-03-19 21:43:00,42.0,38.0,-100.00,South,180,8.0,19.0,85,0.01,,,0.10,1.000000,,2013-03-20 04:43:00,
2013-03-19 21:52:00,42.0,38.0,-100.00,South,180,8.0,19.0,85,0.01,,,0.10,1.000000,,2013-03-20 04:52:00,
2013-03-19 22:22:00,42.0,38.0,-100.00,SSE,159,5.0,16.0,84,0.00,,,0.10,1.000000,,2013-03-20 05:22:00,
2013-03-19 22:32:00,42.0,38.0,-100.00,SSE,159,5.0,16.0,84,0.00,,,0.10,1.000000,,2013-03-20 05:32:00,
2013-03-19 22:42:00,42.0,38.0,-100.00,SSE,159,5.0,16.0,84,0.00,,,0.10,1.000000,,2013-03-20 05:42:00,
2013-03-19 22:52:00,42.0,38.0,-100.00,SSE,159,5.0,16.0,84,0.00,,,0.10,1.000000,,2013-03-20 05:52:00,
2013-03-19 23:22:00,43.0,37.0,-100.00,SSE,161,5.0,10.0,78,0.00,,,0.10,1.000000,,2013-03-20 06:22:00,
2013-03-19 23:32:00,43.0,37.0,-100.00,SSE,161,5.0,10.0,78,0.00,,,0.10,1.000000,,2013-03-20 06:32:00,
2013-03-19 23:42:00,43.0,37.0,-100.00,SSE,161,5.0,10.0,78,0.00,,,0.10,1.000000,,2013-03-20 06:42:00,
2013-03-19 23:52:00,43.0,37.0,-100.00,SSE,161,5.0,10.0,78,0.00,,,0.10,1.000000,,2013-03-20 06:52:00,